{"data":{"norad_id":58709,"intl_designator":"2024-002E","name":"STARLINK-11076 [DTC]","alt_names":[],"object_type":"PAYLOAD","status":"ACTIVE","operator":null,"country":"US","launch_date":"2024-01-03","launch_site_code":"AFWTR","launch_vehicle":null,"mission":null,"orbit_class":"UNKNOWN","rcs_meters":null,"size_class":null,"mass_kg":null,"dimensions":null,"purposes":["comms"],"wikipedia_slug":null,"has_3d_model":false,"image_url":null,"decayed_at":null,"tle_current":{"epoch":"2026-09-20T13:08:49.399008Z","epoch_age_seconds":145663,"freshness":"FRESH","line1":"1 58709U 24002E   26263.54779397  .00004747  00000+0  43978-4 0  9993","line2":"2 58709  53.1599  33.3242 0001002 110.7210 249.3915 15.69729715157047","mean_motion":15.69729715,"eccentricity":0.0001002,"inclination_deg":53.1599,"raan_deg":33.3242,"arg_perigee_deg":110.721,"mean_anomaly_deg":249.3915,"bstar":4.3978e-5,"rev_number":15704,"period_min":91.735538050893,"perigee_km":358.99520593186,"apogee_km":360.34546252164,"semimajor_km":6737.8073342268,"source":"CELESTRAK","updated_at":"2026-09-21T09:00:33.947472Z"}}}